This demonstration page uses our WeatherBlox Daily Observations layout. Learn more.

Left ArrowRight Arrow

Hourly Observations for June 22, 2017

Temp ( °F °C ) Dew Point ( °F °C ) Humidity (%) Winds ( mph kmh ) Pressure ( in mb ) Visibility ( mi km ) Precip ( " mm )
12:15 am 00:15 Clear 74 23.3 58 14.6 58 58 S 12 19 29.65 1004 10 16.0934 0 0
12:35 am 00:35 Clear 73 23 56 13.3 54 54 S 13 20 29.65 1004 10 16.0934 0 0
12:55 am 00:55 Clear 73 22.5 57 13.7 58 58 S 14 22 29.65 1004 10 16.0934 0 0
1:15 am 01:15 Clear 73 22.6 56 13.6 57 57 S 13 20 29.65 1004 10 16.0934 0 0
1:35 am 01:35 Clear 74 23.2 55 13 53 53 S 16 26 29.65 1004 10 16.0934 0 0
1:55 am 01:55 Clear 75 23.7 56 13.2 52 52 S 15 24 29.65 1004 10 16.0934 0 0
2:15 am 02:15 Clear 75 23.8 55 12.9 51 51 S 16 26 29.65 1004 10 16.0934 0 0
2:35 am 02:35 Clear 73 22.9 57 13.7 56 56 SW 12 19 29.65 1004 10 16.0934 0 0
2:55 am 02:55 Clear 71 21.9 59 15 65 65 SW 13 20 29.65 1004 10 16.0934 0 0
3:15 am 03:15 Clear 72 22.1 58 14.6 63 63 SSW 10 17 29.65 1004 10 16.0934 0 0
3:35 am 03:35 Clear 72 22 58 14.2 61 61 SW 10 17 29.62 1003 10 16.0934 0 0
3:55 am 03:55 Clear 71 21.7 57 13.7 61 61 SW 13 20 29.62 1003 10 16.0934 0 0
4:15 am 04:15 Clear 71 21.9 56 13.2 58 58 SSW 12 19 29.62 1003 10 16.0934 0 0
4:35 am 04:35 Clear 72 22 55 13 57 57 SSW 13 20 29.62 1003 10 16.0934 0 0
4:55 am 04:55 Clear 71 21.7 55 13 58 58 SSW 13 20 29.59 1002 10 16.0934 0 0
5:15 am 05:15 Clear 71 21.4 55 13 59 59 SSW 14 22 29.59 1002 10 16.0934 0 0
5:35 am 05:35 Clear 71 21.5 55 12.8 58 58 SSW 16 26 29.59 1002 10 16.0934 0 0
5:55 am 05:55 Clear 69 20.8 55 13 61 61 S 14 22 29.59 1002 10 16.0934 0 0
6:15 am 06:15 Sunny 68 20.2 56 13.2 64 64 S 13 20 29.59 1002 10 16.0934 0 0
6:35 am 06:35 Sunny 69 20.3 56 13.5 65 65 S 15 24 29.59 1002 10 16.0934 0 0
6:55 am 06:55 Sunny 70 20.9 57 13.7 64 64 S 14 22 29.59 1002 10 16.0934 0 0
7:15 am 07:15 Sunny 70 21.2 57 13.8 63 63 SSW 13 20 29.59 1002 10 16.0934 0 0
7:35 am 07:35 Sunny 71 21.8 57 14.1 62 62 SSW 16 26 29.59 1002 10 16.0934 0 0
7:55 am 07:55 Sunny 72 22.3 58 14.3 61 61 SSW 15 24 29.59 1002 10 16.0934 0 0
8:15 am 08:15 Sunny 74 23.1 58 14.5 59 59 S 16 26 29.56 1001 10 16.0934 0 0
8:35 am 08:35 Sunny 74 23.5 58 14.5 57 57 S 20 31 29.53 1000 10 16.0934 0 0
8:55 am 08:55 Sunny 76 24.4 59 15 56 56 S 20 31 29.53 1000 10 16.0934 0 0
9:15 am 09:15 Sunny 77 25 59 15.1 54 54 SSW 20 31 29.53 1000 10 16.0934 0 0
9:35 am 09:35 Sunny 78 25.3 59 15 53 53 SSW 10 17 29.53 1000 10 16.0934 0 0
9:55 am 09:55 Sunny 80 26.4 60 15.8 52 52 S 8 13 29.53 1000 10 16.0934 0 0
10:15 am 10:15 Sunny 80 26.9 60 15.4 49 49 SSW 15 24 29.53 1000 10 16.0934 0 0
10:35 am 10:35 Sunny 80 26.6 60 15.7 51 51 SW 9 15 29.53 1000 10 16.0934 0 0
10:55 am 10:55 Sunny 80 26.9 61 16.2 52 52 SSW 7 11 29.53 1000 10 16.0934 0 0
11:15 am 11:15 Sunny 83 28.6 60 15.7 46 46 SSW 12 19 29.5 999 10 16.0934 0 0
11:35 am 11:35 Sunny 85 29.5 60 15.6 43 43 WSW 6 9 29.5 999 10 16.0934 0 0
11:55 am 11:55 Sunny 86 30.2 60 15.7 41 41 WSW 8 13 29.5 999 10 16.0934 0 0
12:15 pm 12:15 Sunny 87 30.6 59 15.2 39 39 WNW 6 9 29.5 999 10 16.0934 0 0
12:35 pm 12:35 Sunny 88 31 58 14.7 37 37 WNW 5 7 29.53 1000 10 16.0934 0 0
12:55 pm 12:55 Sunny 89 31.9 60 15.7 38 38 WNW 7 11 29.47 998 10 16.0934 0 0
1:15 pm 13:15 Sunny 89 31.5 60 15.5 38 38 NNE 6 9 29.5 999 10 16.0934 0 0
1:35 pm 13:35 Sunny 89 31.8 59 15 36 36 N 7 11 29.5 999 10 16.0934 0 0
1:55 pm 13:55 Sunny 89 31.5 59 14.8 36 36 N 7 11 29.5 999 10 16.0934 0 0
2:15 pm 14:15 Sunny 90 32.4 59 15 35 35 NNE 9 15 29.5 999 10 16.0934 0 0
2:35 pm 14:35 Sunny 90 32.3 59 15.1 35 35 NNE 14 22 29.5 999 10 16.0934 0 0
2:55 pm 14:55 Sunny 89 31.8 58 14.7 35 35 N 14 22 29.5 999 10 16.0934 0 0
3:15 pm 15:15 Sunny 89 31.5 61 16 39 39 N 15 24 29.5 999 10 16.0934 0 0
3:35 pm 15:35 Sunny 89 31.9 60 15.8 38 38 NNE 15 24 29.5 999 10 16.0934 0 0
3:55 pm 15:55 Sunny 89 31.4 60 15.6 38 38 N 16 26 29.56 1001 10 16.0934 0 0
4:15 pm 16:15 Sunny 89 31.4 60 15.6 38 38 N 16 26 29.56 1001 10 16.0934 0 0
4:35 pm 16:35 Sunny 87 30.6 64 17.6 46 46 N 16 26 29.56 1001 10 16.0934 0 0
4:55 pm 16:55 Sunny 86 30.2 64 18 48 48 N 22 35 29.56 1001 10 16.0934 0 0
5:15 pm 17:15 Sunny 85 29.5 65 18.1 50 50 N 17 28 29.56 1001 10 16.0934 0 0
5:35 pm 17:35 Sunny 85 29.2 64 17.7 50 50 N 22 35 29.56 1001 10 16.0934 0 0
5:55 pm 17:55 Sunny 84 28.8 63 17.2 50 50 N 22 35 29.56 1001 10 16.0934 0 0
6:15 pm 18:15 Sunny 83 28.5 61 16.3 48 48 N 22 35 29.56 1001 10 16.0934 0 0
6:35 pm 18:35 Sunny 83 28.1 60 15.8 47 47 NNE 24 39 29.56 1001 10 16.0934 0 0
6:55 pm 18:55 Sunny 82 28 60 15.4 46 46 NNE 23 37 29.56 1001 10 16.0934 0 0
7:15 pm 19:15 Sunny 82 27.6 59 15.1 46 46 NNE 21 33 29.62 1003 10 16.0934 0 0
7:35 pm 19:35 Sunny 81 27.1 58 14.7 47 47 NNE 20 31 29.65 1004 10 16.0934 0 0
7:55 pm 19:55 Sunny 79 26.3 59 14.8 49 49 N 16 26 29.65 1004 10 16.0934 0 0
8:15 pm 20:15 Sunny 78 25.5 59 14.9 52 52 N 18 30 29.65 1004 10 16.0934 0 0
8:35 pm 20:35 Sunny 77 24.9 59 14.8 54 54 N 15 24 29.65 1004 10 16.0934 0 0
8:55 pm 20:55 Sunny 76 24.2 59 15 57 57 N 13 20 29.68 1005 10 16.0934 0 0
9:15 pm 21:15 Mostly Cloudy 75 23.7 59 14.8 58 58 N 12 19 29.71 1006 10 16.0934 0 0
9:35 pm 21:35 Mostly Cloudy 73 23 58 14.7 60 60 N 14 22 29.71 1006 10 16.0934 0 0
9:55 pm 21:55 Mostly Cloudy 74 23.2 59 14.8 59 59 N 15 24 29.74 1007 10 16.0934 0 0
10:15 pm 22:15 Mostly Cloudy 73 22.5 58 14.7 61 61 N 15 24 29.74 1007 10 16.0934 0 0
10:35 pm 22:35 Clear 71 21.6 57 14 62 62 N 16 26 29.8 1009 10 16.0934 0 0
10:55 pm 22:55 Clear 70 21 56 13.5 62 62 N 14 22 29.8 1009 10 16.0934 0 0
11:15 pm 23:15 Clear 69 20.4 56 13.1 63 63 N 18 30 29.8 1009 10 16.0934 0 0
11:35 pm 23:35 Clear 68 19.8 56 13.1 65 65 N 16 26 29.8 1009 10 16.0934 0 0
11:55 pm 23:55 Clear 67 19.3 55 13 67 67 N 17 28 29.8 1009 10 16.0934 0 0

Powered by AerisWeather